Showing default

LEMUR 2 NIMBUS2000, 58899

Orbit data source: Space-Track

LEMUR 2 NIMBUS2000, 58899 is an American payload satellite in SSO that was launched on Wed, 31 Jan 2024 UTC via an ELECTRON launch vehicle from the Rocket Lab Launch Complex (RLLC). Payloads include a variety of satellites, spacecraft, and rockets equipped with specific instruments for various scientific and technological missions. These include communications satellites like Starlink; space stations such as the ISS; scientific satellites like the Hubble; Earth observation satellites from companies like Planet Labs, Umbra, and HawkEye 360; GPS; miniature CubeSats for education and research; and military/defense satellites.

Loading next visibility...
LEMUR 2 NIMBUS2000 details
Identifier
58899, 2024-022A
Orbit
SSO
Last TLE update16 hours ago
Origin
Flag of USSPIRE/NSTAR (US)
ManufacturerSpire/Glasgow
MissionOperational Commercial Early Warn
Bus & MotorCUBESAT 3U, Unknown motor
Mass~25 kg wet, ~25 kg dry
Launch date (UTC)
2024-01-31 (10 months ago)
Launch vehicle
ELECTRON
Launch site
Rocket Lab Launch Complex (RLLC)
Object type
Payload
Rocket body
Debris
Shape & HBRBox + 2 Pan, 1 m
Radar Cross Section0.146 m², Medium (>0.1 m² and < 1m²)

Expand to show TLE details & history

TLE from 16 hours ago
0 LEMUR 2 NIMBUS2000
1 58899U 24022A   24348.03279676  .00013835  00000-0  62547-3 0  9997
2 58899  97.4606 186.0283 0012442 276.2611  83.7207 15.20983405 47970
Epoch: 2024-12-13T00:47Z
Definitive object data (Epoch: 2024-12-13T00:47:13.64Z)
Latitude-0.00001°
Longitude92.01687°
Altitude505.037 km
Speed7.612 km/s
True Right ascension12h 24m 06s
True Declination0° 00' 00"
Sunlit
Object was in daylight at TLE epoch
Visualization TLE readout
Latitude-29.51773°
Longitude96.89156°
Altitude509.235 km
Speed7.611 km/s
Apparent Right ascension09h 04m 43s
Apparent Declination-66° 00' 23"
Sunlit
Object is in daylight
Visualization observer readout
Local Sidereal Time14:57:42
Azimuth209.834° SW
Elevation-35.216°
Doppler factor1
Orbital elements
Apogee altitude508.397 km
Perigee altitude491.282 km
Semi-major axis6,877.977 km
Eccentricity0.0012442
Inclination97.4606°
RAAN186.0283°
Arg. of periapsis276.2611°
True anomaly83.86244°
Mean anomaly83.7207°
Eccentric anomaly83.79157°
Mean motion3.80498 °/min
BSTAR0.00062547
Orbital period94.61 mins
Loading maneuver chart data...
Loading historical data...
Loading historical data...
Loading historical data...
Loading historical data...
Loading historical data...
Loading historical data...
Loading historical data...

LEMUR 2 NIMBUS2000 Visibility forecast

Observer location: undefined°, undefined

Span
Click to sort rows by Start time (UTC) header in descending order
Start Az.
Max El. time (UTC)
Max El. Az.
Max El.
End time (UTC)
End Az.
6 mins2024-12-14 02:36:47.139Z356.957° N2024-12-14 02:39:47.139Z271.057° WNW36.904°2024-12-14 02:42:47.139Z211.567° SW
5 mins2024-12-14 13:14:47.139Z147.072° SSE2024-12-14 13:16:47.139Z83.117° E40.24°2024-12-14 13:19:47.139Z358.716° N
|